Regional Weather Roundup
Issued by NWS

Home | Current Version | Previous Version | Text Only | Print | Product List | Glossary On
Versions: 1 2 3 4 5 6 7 8 9 10 11 12 13 14 15 16 17 18 19 20 21 22 23 24 25 26 27 28 29 30 31 32 33 34 35 36 37 38 39 40 41 42 43 44 45 46 47 48 49 50
000
ASCA44 KEWX 270520
RWRMX

LATIN AMERICA AND CARIBBEAN REGIONAL WEATHER ROUNDUP
NATIONAL WEATHER SERVICE AUSTIN/SAN ANTONIO TX
1100 PM CST WED NOV 26 2014

NOTE: "FAIR" INDICATED FEW OR NO CLOUDS BELOW 12,000 FEET WITH NO
SIGNIFICANT WEATHER AND/OR OBSTRUCTIONS TO VISIBILITY.

BAJA CALIFORNIA

CITY           SKY/WX    TMP DP  RH WIND       PRES   REMARKS
LA PAZ         CLEAR     72  59  64 N8        30.06R
MEXICALI       CLEAR     59  30  33 N5        30.17S
S.J. DEL CABO  CLEAR     68  61  77 N16       30.01S
TIJUANA        CLEAR     63  27  25 CALM      30.15S

NORTHWESTERN MEXICO

CITY           SKY/WX    TMP DP  RH WIND       PRES   REMARKS
CULIACAN       CLEAR     66  59  77 CALM      30.00R
DURANGO        CLEAR     37  10  32 CALM      30.44R
CD. JUAREZ     CLEAR     45  34  65 CALM      30.27S
LOS MOCHIS       N/A    N/A N/A N/A MISG        N/A

NORTHEASTERN MEXICO

CITY           SKY/WX    TMP DP  RH WIND       PRES   REMARKS
CHIHUAHUA      CLEAR     32  16  51 SE6       30.38R WCI  26
MONTERREY      CLEAR     50  39  66 CALM      30.30S
REYNOSA        CLEAR     54  48  82 S3        30.31R
TORREON        CLEAR     48  21  34 CALM      30.36R
CD. VICTORIA   CLEAR     50  46  87 S9        30.33S WCI  46

WESTERN MEXICO

CITY           SKY/WX    TMP DP  RH WIND       PRES   REMARKS
AGUASCALIENTES CLEAR     48  12  23 NE13      30.41R WCI  43
COLIMA         CLEAR     75  54  46 CALM      30.08S
DEL BAJIO      CLEAR     54  14  20 N12       30.45R
GUADALAJARA    PTCLDY    45  34  65 CALM      30.29R
MANZANILLO     CLEAR     75  70  83 N9        29.90
MAZATLAN       CLEAR     54  46  76 N8        29.97S
P. VALLARTA    MOCLDY    66  59  77 NE5       29.99R
ZACATECAS      CLEAR     37   9  30 CALM      30.44R

CENTRAL MEXICO

CITY           SKY/WX    TMP DP  RH WIND       PRES   REMARKS
MEXICO CITY    CLEAR     52  12  20 NW9       30.45R
MORELIA        CLEAR     45  30  57 CALM      30.35R
PUEBLA         PTCLDY    43  14  31 NW14      30.43S WCI  36
QUERETARO      PTCLDY    45  30  57 E9        30.46S WCI  40
S. LUIS POTOSI PTCLDY    41  34  75 CALM      30.43S
TAMPICO        CLEAR     55  52  88 CALM      30.35R
TOLUCA         CLEAR     41  10  28 CALM      30.49S

SOUTHERN MEXICO

CITY           SKY/WX    TMP DP  RH WIND       PRES   REMARKS
ACAPULCO       CLEAR     79  75  89 NW2       29.91R
OAXACA         CLEAR     52  41  66 NE6       30.40R
VERACRUZ       PTCLDY    63  57  82 NW3       30.33S

YUCATAN PENINSULA

CITY           SKY/WX    TMP DP  RH WIND       PRES   REMARKS
CAMPECHE       CLEAR     66  57  72 N12       30.23S
CANCUN         PTCLDY    72  59  64 N5        30.18R
COZUMEL        CLOUDY    70  64  83 N13       30.16S
MERIDA         CLEAR     64  54  68 N5        30.25S
TAPACHULA      MOCLDY    81  79  94 CALM      29.92S
TUX. GUTIERREZ MOCLDY    66  54  63 NW15      30.20S
VILLAHERMOSA   CLOUDY    66  63  88 CALM      30.28F

CENTRAL AMERICA

CITY           SKY/WX    TMP DP  RH WIND       PRES   REMARKS
MANAGUA        PTCLDY    79  72  78 SE7       29.89S

CARIBBEAN

CITY           SKY/WX    TMP DP  RH WIND       PRES   REMARKS
ARUBA          PTCLDY    79  77  94 E8        29.89S
KINGSTON       PTCLDY    81  73  78 NW7       29.97S
NASSAU         MOCLDY    75  70  83 NE8       30.09F
SAN JUAN       PTCLDY    77  73  88 CALM      30.00F
SANTO DOMINGO  PTCLDY    73  72  94 NE6       30.00S
ST. MAARTEN    PTCLDY    79  68  69 E13       29.97F

$$



USA.gov is the U.S. government's official web portal to all federal, state and local government web resources and services.